Regional Weather Roundup
Issued by NWS

Home | Current Version | Previous Version | Text Only | Print | Product List | Glossary On
Versions: 1 2 3 4 5 6 7 8 9 10 11 12 13 14 15 16 17 18 19 20 21 22 23 24 25 26 27 28 29 30 31 32 33 34 35 36 37 38 39 40 41 42 43 44 45 46 47 48 49 50
000
ASUS44 KLUB 272110
RWRTX
WEST TEXAS WEATHER ROUNDUP
NATIONAL WEATHER SERVICE LUBBOCK TX
400 PM CDT FRI MAY 27 2016

NOTE: "FAIR" INDICATES FEW OR NO CLOUDS BELOW 12,000 FEET WITH NO
SIGNIFICANT WEATHER AND/OR OBSTRUCTIONS TO VISIBILITY.

TXZ004-006>008-010-012-014-016-OKZ002-272200-
TEXAS PANHANDLE/OKLAHOMA PANHANDLE

CITY           SKY/WX    TMP DP  RH WIND       PRES   REMARKS
AMARILLO       MOSUNNY   73  36  25 NW12G21   29.78F
BORGER         SUNNY     77  37  23 W18G29    29.76S
CANADIAN       CLOUDY    71  54  55 W5        29.72S
DALHART        CLOUDY    70  38  31 NW14G26   29.81F
DUMAS          MOSUNNY   72  38  28 W20G25    29.80R
GUYMON         CLOUDY    69  42  37 W23G33    29.71F
HEREFORD       SUNNY     76  35  22 NW15      29.80F
PAMPA          MOSUNNY   78  43  29 NW17G28   29.76S
PERRYTON       PTSUNNY   75  42  30 W24G32    29.73S
$$

TXZ026-029-035-045-048-272200-
SOUTHERN PANHANDLE/SOUTH PLAINS/ROLLING PLAINS

CITY           SKY/WX    TMP DP  RH WIND       PRES   REMARKS
CHILDRESS      SUNNY     83  48  29 CALM      29.70F
SEMINOLE       SUNNY     85  23  10 W15G26    29.80F
LUBBOCK        MOSUNNY   83  30  14 SW22      29.76F
PLAINVIEW      SUNNY     82  30  15 W17       29.75F
SNYDER           N/A     85  33  15 SW13      29.75F
$$

TXZ052-054-060>062-072-078-127-140-154-169-272200-
PERMIAN BASIN/CONCHO VALLEY/BIG COUNTRY/EDWARDS PLATEAU

CITY           SKY/WX    TMP DP  RH WIND       PRES   REMARKS
ABILENE        SUNNY     86  47  25 SW13      29.73F
BIG SPRING     SUNNY     83  30  14 SW20G25   29.78F
BROWNWOOD      SUNNY     77  68  73 S10       29.75F
JUNCTION       SUNNY     92  34  13 W8        29.73F
MIDLAND        SUNNY     89  18   7 W9G22     29.77F
ODESSA         SUNNY     89  17   7 W12G25    29.78F
SAN ANGELO     SUNNY     89  39  17 W20G26    29.75F
SONORA         SUNNY     90  28  11 SW13      29.81F
SWEETWATER     SUNNY     87  30  12 SW17      29.77F
WINK           SUNNY     89  15   6 W23G29    29.76F
$$

TXZ055-058-074-075-080-082-272200-
FAR WEST/SOUTHWEST MOUNTAINS/TRANS PECOS

CITY           SKY/WX    TMP DP  RH WIND       PRES   REMARKS
ALPINE         SUNNY     82  12   7 W17G25    29.96F
DRYDEN           N/A     93  20   7 SW17G31   29.75F
EL PASO        SUNNY     82  18   9 W13G20    29.87F
FORT STOCKTON  SUNNY     90  19   7 W13G29    29.80F
MARFA          SUNNY     79  14   8 W14G24    29.95F
PECOS          SUNNY     88  15   7 W10G25    29.78F
PRESIDIO       FAIR      91   8   4 SW14G25   29.83F
$$

TXZ014-016-019-021>030-083-272200
TEXAS TECH WEST TEXAS MESONET/TEXAS PANHANDLE/NORTHERN SOUTH PLAINS

CITY           SKY/WX    TMP DP  RH WIND       PRES   REMARKS
ABERNATHY 5ENE   N/A     82  31  16 W14       29.78S
AMARILLO 9NNE    N/A     77  43  29 NW14      29.78S
AMARILLO 7SSE    N/A     77  35  21 W14       29.80S
AMHERST 1NE      N/A     81  31  16 W23G32    29.77F
BOOTLEG 11WNW    N/A     73  33  23 NW7       29.86S
CANADIAN 6E      N/A     73  50  44 W12       29.71S
CAPROCK CYN SP   N/A     83  31  15 NW16      29.73F
CHILDRESS 2NNE   N/A     84  48  28 W5        29.71F
CLARENDON 2WSW   N/A     79  39  23 W15G21    29.74S
CLAUDE 12SW      N/A     78  34  20 W12       29.78S
DIMMITT 2NE      N/A     78  34  20 W18G24    29.80S
FLOYDADA 2NNE    N/A     82  28  13 W16G22    29.75F
FRIONA 2NE       N/A     76  35  22 N15G21    29.81F
GOODLETT 3W      N/A     85  45  24 W10G17    29.68F
HART 3N          N/A     80  32  17 W18G25    29.79S
HEREFORD 2NW     N/A     76  34  21 NW16G22   29.82F
MCLEAN 1E        N/A     79  45  29 W9        29.73F
MEMPHIS 1NE      N/A     83  45  26 S5        29.71S
MULESHOE 2SSW    N/A     81  31  16 W12G20    29.79S
OLTON 6S         N/A     80  33  18 W13G25    29.77F
PALO DURO SP     N/A     79  35  20 N8        29.79S
PAMPA 2E         N/A     73  43  33 NW15      29.76S
PLAINVIEW 1S     N/A     81  31  16 W17G25    29.76F
SILVERTON 7ESE   N/A     80  33  17 SW16G24   29.74S
TULIA 2ENE       N/A     80  35  19 W17G23    29.78S
TURKEY 2WSW      N/A     85  31  14 SW12G20   29.72S
UMBARGER 3NNE    N/A     77  35  21 W13       29.81S
$$

TXZ033>036-039>041-045>048-272200
TEXAS TECH WEST TEXAS MESONET/SOUTH PLAINS

CITY           SKY/WX    TMP DP  RH WIND       PRES   REMARKS
AIKEN 3WSW       N/A     82  32  16 W17G23    29.77F
ANDREWS 2NE      N/A     85  19   9 W9        29.82F
ANTON 6SSW       N/A     84  29  13 W25G33    29.77F
BROWNFIELD 2S    N/A     84  23  10 W22G33    29.79F
DENVR CTY 7WNW   N/A     83  22  10 W13G20    29.80F
GAIL 2ESE        N/A     87  29  12 SW14G21   29.75F
LAMESA 2SE       N/A     86  23  10 W16G24    29.78F
LEVELLAND 4S     N/A     84  26  12 W17G29    29.79F
LUBBOCK 3WNW     N/A     82  32  16 SW13G18   29.78F
MORTON 1ENE      N/A     82  26  13 SW18G25   29.78F
ODONNELL 1N      N/A     85  24  11 W20G29    29.78S
PLAINS 3N        N/A     83  25  12 W16G24    29.81S
RALLS 1SE        N/A     83  27  12 W20G25    29.78R
REESE CENTER     N/A     82  28  13 W16G25    29.78F
SEAGRAVES 1SW    N/A     85  24  10 W20       29.79F
SEMINOLE 2NNE    N/A     84  21   9 W15G22    29.79F
SLATON 2NE       N/A     84  25  11 W18G28    29.78R
SNYDER 3E        N/A     87  29  12 SW14G23   29.76F
SUNDOWN 8SW      N/A     83  25  12 W16G24    29.80S
TAHOKA 3NNE      N/A     84  27  12 W21       29.78S
WOLFFORTH 6SSW   N/A     84  25  11 W21G28    29.79F
$$

TXZ031-032-036>038-042>044-272200-
TEXAS TECH WEST TEXAS MESONET/ROLLING PLAINS

CITY           SKY/WX    TMP DP  RH WIND       PRES   REMARKS
ASPERMONT 3NE    N/A     89  33  13 W16G24    29.70F
FLUVANNA 3WNW    N/A     87  23  10 W18G25    29.76F
GRAHAM 5SSW      N/A     85  26  11 SW16G23   29.76S
GUTHRIE 10WSW    N/A     89  37  15 W14G20    29.71F
HASKELL 1NW      N/A     91  31  12 W14G21    29.69F
JAYTON 1SSE      N/A     88  32  13 W15G23    29.71F
KNOX CITY 3NW    N/A     91  31  11 W17G24    29.69S
LK A HENRY 1NW   N/A     88  28  11 SW9       29.73F
NORTHFIELD 1S    N/A     87  38  17 W14G21    29.70F
ODELL 4ENE       N/A     87  43  21 W16       29.68R
PADUCAH 10SW     N/A     86  36  16 W17       29.70F
POST 1NE         N/A     87  29  12 SW13G20   29.74S
RRING SPRGS 3N   N/A     84  35  17 SW14      29.73F
SEYMOUR 3NW      N/A     89  37  15 SW18      29.67S
SPUR 1W          N/A     86  31  14 W12G24    29.73F
WEINERT 2NNE     N/A     90  38  16 W15       29.69F
WHITE RVR 6NE    N/A     85  30  13 W16G23    29.74F
$$

TXZ052-054-060>062-072-078-127-140-154-169-272200-
TEXAS TECH WEST TEXAS MESONET/PERMIAN BASIN/
CONCHO VALLEY/BIG COUNTRY/EDWARDS PLATEAU

CITY           SKY/WX    TMP DP  RH WIND       PRES   REMARKS
COYANOSA 2N      N/A     89  16   6 W16       29.79F
JUNCTION 1SSW    N/A     92  36  13 W3        29.74F
MERTZON 3NNE     N/A     88  39  17 SW12      29.79F
SAN ANGELO 7NW   N/A     88  32  13 SW9       29.76F
STRLNG CT 4WSW   N/A     87  37  16 S13       29.78F
ST LAWRNCE 5SW   N/A     88  20   8 W14       29.78F
SWEETWATR 11SW   N/A     85  39  19 W13       29.78F
WALL 1E          N/A     87  38  17 W15       29.78S
$$

TXZ055-058-074-075-080-082-272200-
TEXAS TECH WEST TEXAS MESONET/FAR WEST/SOUTHWEST MOUNTAINS/TRANS PECOS

CITY           SKY/WX    TMP DP  RH WIND       PRES   REMARKS
PRSMN GAP BBNP   N/A     90   8   4 SW14      29.82F
GUADLPE MTN NP   N/A     74  15  11 SW16G22   29.95F
$$




USA.gov is the U.S. government's official web portal to all federal, state and local government web resources and services.